CW0005 Weather Reports


time (UTC)temp
F
wind
direction
speed
knots
gust
knots
rain 1hr
in
rain 24hr
in
rain mn
in
humidity
%
barometer
mb
20260901101516 74 135 0.0 0.0 0.00 0.00 0.00 93 1014.7
20260901100014 74 135 0.0 0.0 0.00 0.00 0.00 93 1014.6
20260901094511 74 135 0.0 0.0 0.00 0.00 0.00 93 1014.6
20260901093017 75 135 0.0 0.0 0.00 0.00 0.00 93 1014.5
20260901091516 75 135 0.0 0.0 0.00 0.00 0.00 92 1014.7
20260901090022 75 135 0.0 0.0 0.00 0.00 0.00 92 1014.7
20260901084531 75 135 0.0 0.0 0.00 0.00 0.00 92 1015.0
20260901083021 76 135 0.0 0.0 0.00 0.00 0.00 92 1014.9
20260901081512 76 135 0.0 0.0 0.00 0.00 0.00 91 1014.9
20260901080017 76 135 0.0 0.0 0.00 0.00 0.00 91 1014.8
20260901074512 76 135 0.0 0.0 0.00 0.00 0.00 91 1014.9
20260901073032 76 135 0.0 0.0 0.00 0.00 0.00 91 1014.7
20260901071524 76 135 0.0 0.0 0.00 0.00 0.00 91 1014.7
20260901070017 76 135 0.0 0.0 0.00 0.00 0.00 90 1014.9
20260901064527 77 135 0.0 0.0 0.00 0.00 0.00 91 1014.8
20260901063024 77 135 0.0 0.0 0.00 0.00 0.00 90 1015.0
20260901061524 77 135 0.0 0.0 0.00 0.00 0.00 90 1015.1
20260901060017 77 135 0.0 0.0 0.00 0.00 0.00 90 1015.2
20260901054517 77 135 0.0 0.0 0.00 0.00 0.00 89 1015.0
20260901053036 77 135 0.0 0.0 0.00 0.00 0.00 88 1015.0
20260901051527 77 135 0.0 0.0 0.00 0.00 0.00 88 1014.9
20260901050029 77 135 0.0 0.0 0.00 0.00 0.00 87 1014.7
20260901044531 78 135 0.0 0.0 0.00 0.00 0.00 86 1014.6
20260901043034 78 135 0.0 0.0 0.00 0.00 0.00 86 1014.4
20260901041523 78 135 0.0 0.0 0.00 0.00 0.00 86 1014.4
20260901040020 79 135 0.0 0.0 0.00 0.00 0.00 86 1014.3
20260901034529 79 135 0.0 0.0 0.00 0.00 0.00 85 1014.3
20260901033038 80 135 0.0 0.0 0.00 0.00 0.00 84 1014.3
20260901031526 80 135 0.0 0.0 0.00 0.00 0.00 83 1014.3
20260901030029 81 135 0.0 0.0 0.00 0.00 0.00 83 1014.3
20260901024528 81 135 0.0 0.0 0.00 0.00 0.00 82 1014.3
20260901023027 82 135 0.0 0.0 0.00 0.00 0.00 80 1014.2
20260901021534 82 135 0.0 0.0 0.00 0.00 0.00 80 1014.2
20260901020049 83 135 0.0 0.0 0.00 0.00 0.00 79 1014.0
20260901014530 83 135 0.0 0.0 0.00 0.00 0.00 77 1013.9
20260901013025 84 135 0.0 0.0 0.00 0.00 0.00 76 1013.7
20260901011538 85 135 0.0 0.0 0.00 0.00 0.00 75 1013.8
20260901010033 86 135 0.0 0.0 0.00 0.00 0.00 73 1013.5
20260901004506 86 135 0.0 0.0 0.00 0.00 0.00 72 1013.5
20260901003006 87 15 0.0 0.0 0.00 0.00 0.00 71 1013.5
20260901001504 88 15 0.0 0.0 0.00 0.00 0.00 70 1013.6
20260901000016 89 15 0.0 0.0 0.00 0.00 0.00 68 1013.4
20260831234521 90 135 0.0 0.0 0.00 0.00 0.00 67 1013.5
20260831233007 90 73 0.0 0.0 0.00 0.00 0.00 67 1013.3
20260831231507 91 98 0.0 2.6 0.00 0.00 0.00 67 1013.3
20260831230011 92 256 0.0 4.3 0.00 0.00 0.00 66 1013.2
20260831224509 92 357 0.0 0.0 0.00 0.00 0.00 67 1013.2
20260831223005 93 356 0.0 0.9 0.00 0.00 0.00 64 1013.1
20260831221504 93 329 0.0 1.7 0.00 0.00 0.00 64 1013.1
20260831220013 92 40 0.0 2.6 0.00 0.00 0.00 64 1013.1
20260831214519 92 88 0.0 4.3 0.00 0.00 0.00 63 1013.0
20260831213030 92 319 0.0 2.6 0.00 0.00 0.00 64 1013.0
20260831211516 91 327 0.0 6.1 0.00 0.00 0.00 64 1013.1
20260831210006 92 353 0.0 0.0 0.00 0.00 0.00 63 1013.2
20260831204513 93 307 0.0 6.1 0.00 0.00 0.00 61 1013.2
20260831203007 93 342 0.0 4.3 0.00 0.00 0.00 63 1013.3
20260831201536 92 319 0.0 6.1 0.00 0.00 0.00 63 1013.2
20260831200032 93 125 0.0 3.5 0.00 0.00 0.00 62 1013.3
20260831194522 93 333 0.0 2.6 0.00 0.00 0.00 62 1013.3
20260831193017 93 43 0.0 2.6 0.00 0.00 0.00 62 1013.2
20260831191523 92 320 0.0 3.5 0.00 0.00 0.00 64 1013.2
20260831190018 93 293 0.0 3.5 0.00 0.00 0.00 62 1013.2
20260831184521 93 162 0.0 2.6 0.00 0.00 0.00 61 1013.2
20260831183008 92 46 0.0 3.5 0.00 0.00 0.00 60 1013.0
20260831181522 92 10 0.0 3.5 0.00 0.00 0.00 62 1013.2
20260831180033 91 69 0.0 2.6 0.00 0.00 0.00 62 1013.1
20260831174524 90 352 0.0 3.5 0.00 0.00 0.00 63 1013.0
20260831173032 88 155 0.0 1.7 0.00 0.00 0.00 66 1013.3
20260831171517 87 304 0.0 2.6 0.00 0.00 0.00 70 1013.2
20260831170019 86 267 0.9 3.5 0.00 0.00 0.00 69 1013.2
20260831164516 85 349 0.0 0.0 0.00 0.00 0.00 69 1013.1
20260831163025 84 338 0.0 0.0 0.00 0.00 0.00 70 1012.8
20260831161528 83 337 0.0 0.9 0.00 0.00 0.00 71 1012.8
20260831160026 83 329 0.0 2.6 0.00 0.01 0.00 72 1012.9
20260831154518 82 52 0.0 7.0 0.00 0.01 0.00 73 1012.5
20260831153003 81 135 0.0 2.6 0.00 0.01 0.00 75 1013.1
20260831151508 80 135 0.0 1.7 0.00 0.01 0.00 74 1013.2
20260831150013 79 315 0.0 3.5 0.00 0.02 0.00 75 1013.1
20260831144517 78 135 0.0 3.5 0.00 0.02 0.00 75 1013.0
20260831143005 77 301 0.0 2.6 0.00 0.02 0.00 77 1012.9
20260831141507 77 135 0.0 0.0 0.00 0.02 0.00 77 1012.8
20260831140008 76 135 0.0 0.9 0.00 0.02 0.00 77 1012.8
20260831134507 76 135 0.0 2.6 0.00 0.02 0.00 77 1012.6
20260831133003 75 135 0.0 1.7 0.00 0.02 0.00 78 1012.5
20260831131503 74 135 0.0 2.6 0.00 0.02 0.00 79 1012.5
20260831130008 74 135 0.0 0.0 0.00 0.02 0.00 79 1012.1
20260831124514 74 135 0.0 1.7 0.00 0.02 0.00 80 1012.0
20260831123013 73 135 0.0 0.0 0.00 0.02 0.00 80 1011.8
20260831121526 73 135 0.0 0.0 0.00 0.02 0.00 80 1011.7
20260831120019 73 135 0.0 0.0 0.00 0.02 0.00 80 1011.5
20260831114511 73 135 0.0 0.0 0.00 0.02 0.00 79 1011.3
20260831113017 73 135 0.0 0.0 0.00 0.02 0.00 79 1011.2
20260831111520 73 135 0.0 0.0 0.00 0.02 0.00 79 1011.0
20260831110022 73 135 0.0 0.0 0.00 0.02 0.00 79 1011.0
20260831104523 74 135 0.0 0.0 0.00 0.02 0.00 78 1011.0
20260831103016 74 135 0.0 0.0 0.00 0.02 0.00 78 1010.9